#timestamp,LO_Frequency,Hit,StdDev 
1511287215.5,286047007.5,N
1511287235.4,286047007.2,N
1511287255.2,286047006.2,N
1511287275.0,286047007.4,N
1511287275.9,286047007.4,N
1511287295.8,286047006.0,N
1511287315.6,286047002.1,N
1511287335.4,286046995.8,N
1511287355.3,286047000.8,N
1511287375.1,286047000.6,N
1511287376.0,286047000.6,N
1511287395.8,286047002.2,N
1511287415.7,286047000.5,N
1511287435.5,286046999.5,N
1511287455.3,286047002.4,N
1511287475.2,286047002.4,N
1511287495.9,286046998.4,N
1511287515.7,286046998.2,N
1511287535.5,286047001.0,N
1511287555.4,286046998.2,N
1511287575.2,286047000.0,N
1511287595.0,286047000.8,N
1511287595.9,286047000.8,N
1511287615.8,286047002.1,N
1511287635.6,286047006.6,N
1511287655.4,286047009.0,N
1511287675.3,286047008.6,N
1511287695.1,286047004.9,N
1511287696.0,286047004.9,N
1511287715.8,286047007.6,N
1511287735.7,286047004.7,N
1511287755.5,286047007.4,N
1511287775.3,286047004.5,N
1511287795.2,286047005.8,N
1511287815.9,286047002.2,N
1511287835.7,286046997.1,N
1511287855.5,286046997.3,N
1511287875.4,286046997.4,N
1511287895.2,286046999.5,N
1511287915.0,286046994.9,N
1511287915.9,286046994.9,N
1511287935.8,286046999.7,N
1511287955.6,286047003.6,N
1511287975.4,286047004.2,N
1511287995.3,286047004.3,N
1511288015.1,286047007.5,N
1511288016.0,286047007.5,N
1511288035.8,286047004.0,N
1511288055.7,286047006.0,N
1511288075.5,286047004.7,N
1511288095.3,286047004.2,N
1511288115.2,286047001.3,N
1511288135.9,286047007.1,N
1511288155.7,286047004.3,N
1511288175.6,286047003.1,N
1511288195.4,286047003.7,N
1511288215.2,286047001.9,N
1511288235.0,286046995.0,N
1511288236.0,286046995.0,N
1511288255.8,286046993.7,N
1511288275.6,286046996.8,N
1511288295.4,286047000.3,N
1511288315.3,286046998.7,N
1511288335.1,286046993.7,N
1511288355.8,286046997.3,N
1511288375.7,286046998.1,N
1511288395.5,286046998.6,N
1511288415.3,286047001.0,N
1511288435.2,286046995.1,N
1511288455.9,286046993.9,N
1511288475.7,286046996.4,N
1511288495.6,286046997.2,N
1511288515.4,286046997.2,N
1511288535.2,286046995.7,N
1511288555.1,286046997.8,N
1511288556.0,286046997.8,N
1511288575.8,286046994.4,N
1511288595.6,286046989.0,N
1511288615.4,286046988.7,N
1511288635.3,286046992.6,N
1511288655.1,286046993.3,N
1511288675.8,286046996.1,N
1511288695.7,286046996.0,N
1511288715.5,286046991.8,N
1511288735.3,286046989.0,Y
1511288755.2,286046994.8,P
1511288775.0,286046994.9,P
1511288775.9,286046994.9,P
1511288795.7,286046997.2,Y
1511288815.6,286047010.3,P
1511288835.4,286047007.6,N
1511288855.2,286047007.5,N
1511288875.1,286047004.7,N
1511288876.0,286047004.7,N
1511288895.8,286047007.5,N
1511288915.6,286047010.4,N
1511288935.5,286047016.2,Y
1511288955.3,286047011.8,P
1511288975.1,286047008.6,N
1511288995.9,286047008.3,P
1511289015.7,286047008.4,Y
1511289035.5,286047002.4,P
1511289055.4,286046999.9,N
1511289075.2,286047001.5,N
1511289095.0,286047001.7,N
1511289095.9,286047001.7,N
1511289115.8,286047001.9,N
1511289135.6,286047001.5,N
1511289155.4,286047003.9,N
1511289175.3,286047002.3,N
1511289195.1,286046996.9,N
1511289196.0,286046996.9,N
1511289215.8,286046993.7,N
1511289235.7,286046997.6,N
1511289255.5,286046993.6,N
1511289275.3,286046994.3,N
1511289295.1,286046993.0,N
1511289315.9,286046994.2,N
1511289335.7,286046995.9,N
1511289355.5,286047000.9,N
1511289375.4,286047000.4,N
1511289395.2,286047001.4,N
1511289415.0,286047003.5,N
1511289415.9,286047003.5,N
1511289435.8,286047005.3,N
1511289455.6,286047003.7,N
1511289475.4,286047000.3,N
1511289495.3,286046995.6,N
1511289515.1,286046994.0,N
1511289516.0,286046994.0,N
1511289535.8,286046992.0,N
1511289555.7,286046991.8,N
1511289575.5,286046996.8,N
1511289595.3,286046991.4,N
1511289615.2,286046985.8,Y
1511289635.9,286046986.0,P
1511289655.7,286046984.9,N
1511289675.6,286046987.9,N
1511289695.4,286046991.3,N
1511289715.2,286046994.5,N
1511289735.0,286046994.9,N
1511289735.9,286046994.9,N
1511289755.8,286046995.8,N
1511289775.6,286046990.3,N
1511289795.4,286046996.4,N
1511289815.3,286046993.4,N
1511289835.1,286046999.8,N
1511289855.8,286047008.7,N
1511289875.7,286047008.2,N
1511289895.5,286047009.6,N
1511289915.3,286047004.7,N
1511289935.2,286047005.7,N
1511289955.9,286047005.6,N
1511289975.7,286047002.9,N
1511289995.5,286047002.5,N
1511290015.4,286047000.7,N
1511290035.2,286047000.3,N
1511290055.0,286046997.1,N
1511290055.9,286046997.1,N
1511290075.8,286046995.9,N
1511290095.6,286046993.9,N
1511290115.4,286046992.8,N
1511290135.3,286046992.8,N
1511290155.1,286046993.4,N
1511290156.0,286046993.4,N
1511290175.8,286046990.9,N
1511290195.7,286046988.8,N
1511290215.5,286046990.3,N
1511290235.3,286046988.7,N
1511290255.2,286046987.2,N
1511290275.9,286046986.5,N
1511290295.7,286046986.8,N
1511290315.5,286046985.5,N
1511290335.4,286046984.3,N
1511290355.2,286046986.3,N
1511290375.0,286046983.0,N
1511290375.9,286046983.0,N
1511290395.8,286046982.1,N
1511290415.6,286046986.7,N
1511290435.4,286046982.9,N
1511290455.3,286046981.2,N
1511290475.1,286046981.0,N
1511290495.8,286046984.8,N
1511290515.7,286046982.5,N
1511290535.5,286046981.7,N
1511290555.3,286046987.3,N
1511290575.2,286046986.7,N
1511290595.9,286046983.7,Y
1511290615.7,286047003.1,P
1511290635.6,286047001.7,N
1511290655.4,286047002.1,N
1511290675.2,286047003.1,N
1511290695.1,286047006.1,N
1511290696.0,286047006.1,N
1511290715.8,286047006.2,N
1511290735.6,286047007.3,N
1511290755.4,286047004.8,N
1511290775.3,286047008.4,N
1511290795.1,286047007.4,N
